Date String (YYYY-MM-DD hh:mm:ss) UTC,Instrument flags,Ambient pressure (hPa),Sample flow (lpm),Bypass flow (lpm),Sample temperature (°C),Ambient temperature (°C),ASC tube jacket temperature (°C),LED temperature (°C),Box temperature (°C),Sample RH (%),Span deviation,Mass concentration (μg/m³),Mass concentration (μg/m³),Mass concentration (μg/m³)
DateTimeUTC,F1_M11,P_M11,Q1_M11,Q2_M11,T1_M11,T2_M11,T3_M11,T4_M11,T5_M11,U1_M11,ZSPAN_M11,X0_M11,X2_M11,X1_M11
2022-11-16 17:00:00,,0835.5,5.00,0.00,22.5,21.1,00.0,31.4,24.3,08.6,0000.0,0005.97,0002.66,0002.15
2022-11-16 17:01:00,,0835.5,4.98,0.00,22.5,21.2,00.0,31.4,24.3,08.5,0000.0,0006.01,0002.66,0002.18
2022-11-16 17:02:00,,0835.5,5.01,0.00,22.5,21.2,00.0,31.4,24.4,08.6,0000.0,0005.94,0002.64,0002.21
2022-11-16 17:03:00,,0835.5,5.01,0.00,22.5,21.2,00.0,31.4,24.3,08.6,0000.0,0005.21,0002.68,0002.25
2022-11-16 17:04:00,,0835.5,4.99,0.00,22.5,21.3,00.0,31.4,24.3,08.7,0000.0,0004.95,0002.75,0002.29
2022-11-16 17:05:00,,0835.5,5.00,0.00,22.5,21.3,00.0,31.4,24.4,08.5,0000.0,0004.60,0002.80,0002.32
2022-11-16 17:06:00,,0835.5,5.00,0.00,22.5,21.3,00.0,31.4,24.4,08.7,0000.0,0004.53,0002.80,0002.35
2022-11-16 17:07:00,,0835.5,5.00,0.00,22.5,21.3,00.0,31.4,24.3,09.0,0000.0,0004.59,0002.83,0002.38
2022-11-16 17:08:00,,0835.5,5.00,0.00,22.5,21.3,00.0,31.4,24.4,08.6,0000.0,0004.62,0002.84,0002.39
2022-11-16 17:09:00,,0835.4,5.01,0.00,22.5,21.3,00.0,31.4,24.4,08.6,0000.0,0004.77,0002.90,0002.41
2022-11-16 17:10:00,,0835.4,5.00,0.00,22.5,21.3,00.0,31.4,24.4,08.9,0000.0,0004.85,0002.94,0002.45
2022-11-16 17:11:00,,0835.4,5.00,0.00,22.5,21.3,00.0,31.4,24.4,09.1,0000.0,0005.04,0003.00,0002.48
2022-11-16 17:12:00,,0835.4,5.00,0.00,22.5,21.3,00.0,31.4,24.4,08.7,0000.0,0005.10,0003.02,0002.50
2022-11-16 17:13:00,,0835.4,5.00,0.00,22.5,21.3,00.0,31.4,24.4,08.9,0000.0,0006.63,0003.10,0002.53
2022-11-16 17:14:00,,0835.4,5.00,0.00,22.5,21.3,00.0,31.4,24.4,09.0,0000.0,0006.78,0003.14,0002.56
2022-11-16 17:15:00,,0835.4,5.00,0.00,22.5,21.3,00.0,31.4,24.4,08.9,0000.0,0006.80,0003.18,0002.59
2022-11-16 17:16:00,,0835.4,5.00,0.00,22.5,21.3,00.0,31.4,24.4,08.9,0000.0,0007.55,0003.18,0002.61
2022-11-16 17:17:00,,0835.4,4.99,0.00,22.5,21.3,00.0,31.4,24.4,08.0,0000.0,0007.53,0003.15,0002.56
2022-11-16 17:18:00,,0835.4,5.00,0.00,22.5,21.3,00.0,31.4,24.4,08.0,0000.0,0007.37,0003.11,0002.53
2022-11-16 17:19:00,,0835.4,4.99,0.00,22.5,21.3,00.0,31.4,24.4,08.1,0000.0,0007.36,0003.11,0002.51
2022-11-16 17:20:00,,0835.4,5.00,0.00,22.5,21.3,00.0,31.4,24.4,08.2,0000.0,0007.16,0003.04,0002.48
2022-11-16 17:21:00,,0835.4,5.00,0.00,22.5,21.3,00.0,31.4,24.4,07.6,0000.0,0007.25,0002.99,0002.41
2022-11-16 17:22:00,,0835.4,5.00,0.00,22.6,21.3,00.0,31.4,24.4,07.7,0000.0,0007.34,0002.87,0002.35
2022-11-16 17:23:00,,0835.3,5.00,0.00,22.5,21.3,00.0,31.4,24.4,07.8,0000.0,0007.41,0002.79,0002.31
2022-11-16 17:24:00,,0835.4,5.00,0.00,22.5,21.3,00.0,31.4,24.4,07.9,0000.0,0006.04,0002.71,0002.26
2022-11-16 17:25:00,,0835.3,5.01,0.00,22.5,21.3,00.0,31.4,24.4,08.1,0000.0,0005.78,0002.71,0002.24
2022-11-16 17:26:00,,0835.4,5.01,0.00,22.5,21.3,00.0,31.4,24.4,07.8,0000.0,0005.85,0002.70,0002.24
2022-11-16 17:27:00,,0835.3,5.01,0.00,22.5,21.3,00.0,31.4,24.3,08.1,0000.0,0005.15,0002.69,0002.22
2022-11-16 17:28:00,,0835.3,4.99,0.00,22.5,21.2,00.0,31.4,24.3,08.1,0000.0,0004.94,0002.75,0002.25
2022-11-16 17:29:00,,0835.3,4.98,0.00,22.5,21.2,00.0,31.4,24.3,08.2,0000.0,0004.97,0002.78,0002.27
2022-11-16 17:30:00,,0835.3,5.00,0.00,22.5,21.2,00.0,31.4,24.3,08.2,0000.0,0005.00,0002.80,0002.30
2022-11-16 17:31:00,,0835.2,5.00,0.00,22.5,21.2,00.0,31.4,24.4,08.1,0000.0,0005.15,0002.85,0002.31
2022-11-16 17:32:00,,0835.3,5.00,0.00,22.5,21.2,00.0,31.4,24.4,08.3,0000.0,0005.33,0002.98,0002.39
2022-11-16 17:33:00,,0835.3,5.00,0.00,22.5,21.2,00.0,31.4,24.4,08.2,0000.0,0005.60,0003.27,0002.63
2022-11-16 17:34:00,,0835.2,5.00,0.00,22.5,21.2,00.0,31.4,24.4,08.3,0000.0,0005.45,0003.31,0002.65
2022-11-16 17:35:00,,0835.2,5.00,0.00,22.5,21.3,00.0,31.4,24.4,08.3,0000.0,0005.56,0003.32,0002.65
2022-11-16 17:36:00,,0835.2,5.00,0.00,22.5,21.3,00.0,31.4,24.4,08.1,0000.0,0005.64,0003.26,0002.60
2022-11-16 17:37:00,,0835.2,4.99,0.00,22.5,21.3,00.0,31.4,24.4,08.2,0000.0,0005.40,0003.20,0002.54
2022-11-16 17:38:00,,0835.2,5.00,0.00,22.5,21.3,00.0,31.4,24.4,08.4,0000.0,0005.29,0003.17,0002.54
2022-11-16 17:39:00,,0835.3,5.00,0.00,22.5,21.3,00.0,31.4,24.4,08.6,0000.0,0005.29,0003.17,0002.55
2022-11-16 17:40:00,,0835.3,5.00,0.00,22.5,21.3,00.0,31.4,24.4,08.2,0000.0,0005.42,0003.18,0002.56
2022-11-16 17:41:00,,0835.2,5.00,0.00,22.5,21.3,00.0,31.4,24.4,08.4,0000.0,0005.99,0003.19,0002.57
2022-11-16 17:42:00,,0835.2,5.00,0.00,22.5,21.3,00.0,31.4,24.4,08.5,0000.0,0006.09,0003.18,0002.57
2022-11-16 17:43:00,,0835.2,5.00,0.00,22.5,21.4,00.0,31.4,24.4,08.5,0000.0,0005.96,0003.13,0002.55
2022-11-16 17:44:00,,0835.2,5.00,0.00,22.5,21.4,00.0,31.4,24.4,09.0,0000.0,0005.39,0002.88,0002.38
2022-11-16 17:45:00,,0835.2,5.00,0.00,22.5,21.4,00.0,31.4,24.5,08.3,0000.0,0005.57,0002.88,0002.41
2022-11-16 17:46:00,,0835.2,5.00,0.00,22.6,21.4,00.0,31.4,24.5,08.2,0000.0,0005.87,0002.88,0002.44
2022-11-16 17:47:00,,0835.2,5.00,0.00,22.6,21.3,00.0,31.4,24.5,08.2,0000.0,0006.14,0002.93,0002.50
2022-11-16 17:48:00,,0835.1,5.00,0.00,22.6,21.3,00.0,31.4,24.4,08.3,0000.0,0006.16,0002.99,0002.54
2022-11-16 17:49:00,,0835.1,5.01,0.00,22.6,21.3,00.0,31.4,24.4,08.3,0000.0,0006.43,0003.12,0002.61
2022-11-16 17:50:00,,0835.1,5.00,0.00,22.6,21.3,00.0,31.4,24.4,08.4,0000.0,0006.88,0003.19,0002.70
2022-11-16 17:51:00,,0835.1,4.99,0.00,22.5,21.0,00.0,31.4,24.3,08.5,0000.0,0007.43,0003.22,0002.76
2022-11-16 17:52:00,,0835.1,4.99,0.00,22.4,20.7,00.0,31.4,24.1,08.5,0000.0,0006.99,0003.24,0002.83
2022-11-16 17:53:00,,0835.0,5.01,0.00,22.4,20.6,00.0,31.4,24.1,08.6,0000.0,0007.09,0003.29,0002.90
2022-11-16 17:54:00,,0835.1,5.01,0.00,22.4,20.7,00.0,31.4,24.2,08.6,0000.0,0007.05,0003.32,0002.94
2022-11-16 17:55:00,,0835.1,5.00,0.00,22.4,20.9,00.0,31.3,24.2,08.8,0000.0,0007.02,0003.33,0002.98
2022-11-16 17:56:00,,0835.1,4.99,0.00,22.4,21.0,00.0,31.3,24.2,08.6,0000.0,0006.88,0003.35,0003.00
2022-11-16 17:57:00,,0835.0,5.00,0.00,22.4,21.0,00.0,31.3,24.2,08.6,0000.0,0007.31,0003.39,0003.06
2022-11-16 17:58:00,,0835.0,5.00,0.00,22.4,21.0,00.0,31.3,24.2,09.0,0000.0,0007.02,0003.43,0003.12
2022-11-16 17:59:00,,0835.0,5.00,0.00,22.4,20.9,00.0,31.3,24.2,09.2,0000.0,0008.08,0003.50,0003.15
